contact:dominique.lefevre@mio.osupytheas.fr, maurice.libes@osupytheas.fr, didier.mallarino@osupytheas.fr
Project:EMSO http://www.emso-fr.org/EMSO-France
Depth: 2436.0 m
Title:EMSO Ligure Ouest : Data MII capteur MICROCAT
DateTime_Computer,Latitude,Longitude,Temperature,Conductivity,Pressure,DateTime_Instrument
DateTime_Computer,Latitude,Longitude,degC,S m-1,dbar,DateTime_Instrument
2023-12-30T00:02:32Z,42.805,6.029,13.3044,4.60119,2470.787,2023-12-30T02:05:03Z
2023-12-30T00:05:35Z,42.805,6.029,13.3045,4.60122,2470.74,2023-12-30T02:08:06Z
2023-12-30T00:08:39Z,42.805,6.029,13.3045,4.60127,2470.763,2023-12-30T02:11:10Z
2023-12-30T00:11:42Z,42.805,6.029,13.3044,4.60119,2470.74,2023-12-30T02:14:13Z
2023-12-30T00:14:45Z,42.805,6.029,13.3041,4.60122,2470.717,2023-12-30T02:17:16Z
2023-12-30T00:17:48Z,42.805,6.029,13.3038,4.60120,2470.717,2023-12-30T02:20:19Z
2023-12-30T00:20:51Z,42.805,6.029,13.3039,4.60126,2470.73,2023-12-30T02:23:22Z
2023-12-30T00:23:54Z,42.805,6.029,13.3049,4.60122,2470.74,2023-12-30T02:26:25Z
2023-12-30T00:26:57Z,42.805,6.029,13.3038,4.60123,2470.754,2023-12-30T02:29:28Z
2023-12-30T00:30:00Z,42.805,6.029,13.3039,4.60117,2470.74,2023-12-30T02:32:31Z
2023-12-30T00:33:03Z,42.805,6.029,13.3035,4.60132,2470.717,2023-12-30T02:35:34Z
2023-12-30T00:36:06Z,42.805,6.029,13.3041,4.60127,2470.754,2023-12-30T02:38:37Z
2023-12-30T00:39:09Z,42.805,6.029,13.3046,4.60122,2470.74,2023-12-30T02:41:40Z
2023-12-30T00:42:12Z,42.805,6.029,13.3038,4.60123,2470.73,2023-12-30T02:44:44Z
2023-12-30T00:45:16Z,42.805,6.029,13.3038,4.60117,2470.717,2023-12-30T02:47:47Z
2023-12-30T00:48:19Z,42.805,6.029,13.3039,4.60117,2470.73,2023-12-30T02:50:50Z
2023-12-30T00:51:22Z,42.805,6.029,13.3043,4.60120,2470.717,2023-12-30T02:53:53Z
2023-12-30T00:54:25Z,42.805,6.029,13.3042,4.60121,2470.717,2023-12-30T02:56:56Z
2023-12-30T00:57:28Z,42.805,6.029,13.3037,4.60120,2470.717,2023-12-30T02:59:59Z
2023-12-30T01:00:31Z,42.805,6.029,13.3037,4.60117,2470.693,2023-12-30T03:03:02Z
2023-12-30T01:03:34Z,42.805,6.029,13.3036,4.60120,2470.707,2023-12-30T03:06:05Z
2023-12-30T01:06:37Z,42.805,6.029,13.3036,4.60116,2470.717,2023-12-30T03:09:08Z
2023-12-30T01:09:40Z,42.805,6.029,13.3036,4.60120,2470.717,2023-12-30T03:12:11Z
2023-12-30T01:12:43Z,42.805,6.029,13.3035,4.60117,2470.707,2023-12-30T03:15:14Z
2023-12-30T01:15:46Z,42.805,6.029,13.3037,4.60115,2470.73,2023-12-30T03:18:17Z
2023-12-30T01:18:49Z,42.805,6.029,13.3035,4.60119,2470.707,2023-12-30T03:21:20Z
2023-12-30T01:21:52Z,42.805,6.029,13.3035,4.60114,2470.754,2023-12-30T03:24:24Z
2023-12-30T01:24:56Z,42.805,6.029,13.3037,4.60116,2470.717,2023-12-30T03:27:27Z
2023-12-30T01:27:59Z,42.805,6.029,13.3036,4.60116,2470.717,2023-12-30T03:30:30Z
2023-12-30T01:31:02Z,42.805,6.029,13.3034,4.60117,2470.717,2023-12-30T03:33:33Z
2023-12-30T01:34:05Z,42.805,6.029,13.3030,4.60115,2470.707,2023-12-30T03:36:36Z
2023-12-30T01:37:08Z,42.805,6.029,13.3040,4.60115,2470.754,2023-12-30T03:39:39Z
2023-12-30T01:40:11Z,42.805,6.029,13.3036,4.60114,2470.717,2023-12-30T03:42:42Z
2023-12-30T01:43:14Z,42.805,6.029,13.3036,4.60115,2470.693,2023-12-30T03:45:45Z
2023-12-30T01:46:17Z,42.805,6.029,13.3035,4.60120,2470.693,2023-12-30T03:48:48Z
2023-12-30T01:49:20Z,42.805,6.029,13.3029,4.60126,2470.67,2023-12-30T03:51:51Z
2023-12-30T01:52:23Z,42.805,6.029,13.3035,4.60114,2470.693,2023-12-30T03:54:54Z
2023-12-30T01:55:26Z,42.805,6.029,13.3039,4.60121,2470.73,2023-12-30T03:57:57Z
2023-12-30T01:58:29Z,42.805,6.029,13.3032,4.60117,2470.693,2023-12-30T04:01:00Z
2023-12-30T02:01:33Z,42.805,6.029,13.3034,4.60122,2470.693,2023-12-30T04:04:04Z
2023-12-30T02:04:36Z,42.805,6.029,13.3034,4.60115,2470.693,2023-12-30T04:07:07Z
2023-12-30T02:07:39Z,42.805,6.029,13.3036,4.60117,2470.717,2023-12-30T04:10:10Z
2023-12-30T02:10:42Z,42.805,6.029,13.3035,4.60122,2470.67,2023-12-30T04:13:13Z
2023-12-30T02:13:45Z,42.805,6.029,13.3031,4.60124,2470.73,2023-12-30T04:16:16Z
2023-12-30T02:16:48Z,42.805,6.029,13.3037,4.60117,2470.707,2023-12-30T04:19:19Z
2023-12-30T02:19:51Z,42.805,6.029,13.3034,4.60117,2470.693,2023-12-30T04:22:22Z
2023-12-30T02:22:54Z,42.805,6.029,13.3034,4.60114,2470.693,2023-12-30T04:25:25Z
2023-12-30T02:25:57Z,42.805,6.029,13.3035,4.60117,2470.693,2023-12-30T04:28:28Z
2023-12-30T02:29:00Z,42.805,6.029,13.3036,4.60119,2470.693,2023-12-30T04:31:31Z
2023-12-30T02:32:03Z,42.805,6.029,13.3033,4.60120,2470.67,2023-12-30T04:34:34Z
2023-12-30T02:35:06Z,42.805,6.029,13.3036,4.60122,2470.707,2023-12-30T04:37:37Z
2023-12-30T02:38:10Z,42.805,6.029,13.3036,4.60121,2470.684,2023-12-30T04:40:41Z
2023-12-30T02:41:13Z,42.805,6.029,13.3035,4.60115,2470.693,2023-12-30T04:43:44Z
2023-12-30T02:44:16Z,42.805,6.029,13.3039,4.60117,2470.693,2023-12-30T04:46:47Z
2023-12-30T02:47:19Z,42.805,6.029,13.3036,4.60115,2470.74,2023-12-30T04:49:50Z
2023-12-30T02:50:22Z,42.805,6.029,13.3035,4.60115,2470.684,2023-12-30T04:52:53Z
2023-12-30T02:53:25Z,42.805,6.029,13.3035,4.60117,2470.693,2023-12-30T04:55:56Z
2023-12-30T02:56:28Z,42.805,6.029,13.3034,4.60122,2470.67,2023-12-30T04:58:59Z
2023-12-30T02:59:31Z,42.805,6.029,13.3033,4.60114,2470.679,2023-12-30T05:02:02Z
2023-12-30T03:02:34Z,42.805,6.029,13.3032,4.60117,2470.707,2023-12-30T05:05:05Z
2023-12-30T03:05:37Z,42.805,6.029,13.3034,4.60113,2470.717,2023-12-30T05:08:08Z
2023-12-30T03:08:40Z,42.805,6.029,13.3037,4.60125,2470.693,2023-12-30T05:11:11Z
2023-12-30T03:11:43Z,42.805,6.029,13.3037,4.60113,2470.693,2023-12-30T05:14:14Z
2023-12-30T03:14:46Z,42.805,6.029,13.3035,4.60119,2470.693,2023-12-30T05:17:17Z
2023-12-30T03:17:50Z,42.805,6.029,13.3035,4.60114,2470.693,2023-12-30T05:20:21Z
2023-12-30T03:20:53Z,42.805,6.029,13.3036,4.60117,2470.684,2023-12-30T05:23:24Z
2023-12-30T03:23:56Z,42.805,6.029,13.3034,4.60117,2470.693,2023-12-30T05:26:27Z
2023-12-30T03:26:59Z,42.805,6.029,13.3036,4.60115,2470.693,2023-12-30T05:29:30Z
2023-12-30T03:30:02Z,42.805,6.029,13.3036,4.60115,2470.67,2023-12-30T05:32:33Z
2023-12-30T03:33:05Z,42.805,6.029,13.3034,4.60116,2470.67,2023-12-30T05:35:36Z
2023-12-30T03:36:08Z,42.805,6.029,13.3032,4.60125,2470.67,2023-12-30T05:38:39Z
2023-12-30T03:39:11Z,42.805,6.029,13.3039,4.60114,2470.684,2023-12-30T05:41:42Z
2023-12-30T03:42:14Z,42.805,6.029,13.3037,4.60115,2470.67,2023-12-30T05:44:45Z
2023-12-30T03:45:17Z,42.805,6.029,13.3031,4.60114,2470.67,2023-12-30T05:47:48Z
2023-12-30T03:48:20Z,42.805,6.029,13.3034,4.60114,2470.693,2023-12-30T05:50:51Z
2023-12-30T03:51:23Z,42.805,6.029,13.3037,4.60115,2470.73,2023-12-30T05:53:54Z
2023-12-30T03:54:27Z,42.805,6.029,13.3034,4.60115,2470.73,2023-12-30T05:56:58Z
2023-12-30T03:57:30Z,42.805,6.029,13.3032,4.60115,2470.707,2023-12-30T06:00:01Z
2023-12-30T04:00:33Z,42.805,6.029,13.3035,4.60115,2470.73,2023-12-30T06:03:04Z
2023-12-30T04:03:36Z,42.805,6.029,13.3038,4.60114,2470.693,2023-12-30T06:06:07Z
2023-12-30T04:06:39Z,42.805,6.029,13.3036,4.60114,2470.693,2023-12-30T06:09:10Z
2023-12-30T04:09:42Z,42.805,6.029,13.3036,4.60114,2470.693,2023-12-30T06:12:13Z
2023-12-30T04:12:45Z,42.805,6.029,13.3035,4.60114,2470.73,2023-12-30T06:15:16Z
2023-12-30T04:15:48Z,42.805,6.029,13.3035,4.60113,2470.73,2023-12-30T06:18:19Z
2023-12-30T04:18:51Z,42.805,6.029,13.3035,4.60114,2470.717,2023-12-30T06:21:22Z
2023-12-30T04:21:54Z,42.805,6.029,13.3030,4.60115,2470.717,2023-12-30T06:24:25Z
2023-12-30T04:24:57Z,42.805,6.029,13.3034,4.60114,2470.717,2023-12-30T06:27:28Z
2023-12-30T04:28:00Z,42.805,6.029,13.3035,4.60114,2470.693,2023-12-30T06:30:31Z
2023-12-30T04:31:03Z,42.805,6.029,13.3039,4.60119,2470.707,2023-12-30T06:33:35Z
2023-12-30T04:34:07Z,42.805,6.029,13.3032,4.60114,2470.717,2023-12-30T06:36:38Z
2023-12-30T04:37:10Z,42.805,6.029,13.3037,4.60114,2470.717,2023-12-30T06:39:41Z
2023-12-30T04:40:13Z,42.805,6.029,13.3036,4.60114,2470.726,2023-12-30T06:42:44Z
2023-12-30T04:43:16Z,42.805,6.029,13.3039,4.60119,2470.717,2023-12-30T06:45:47Z
2023-12-30T04:46:19Z,42.805,6.029,13.3036,4.60119,2470.693,2023-12-30T06:48:50Z
2023-12-30T04:49:22Z,42.805,6.029,13.3034,4.60119,2470.73,2023-12-30T06:51:53Z
2023-12-30T04:52:25Z,42.805,6.029,13.3037,4.60117,2470.73,2023-12-30T06:54:56Z
2023-12-30T04:55:28Z,42.805,6.029,13.3034,4.60116,2470.777,2023-12-30T06:57:59Z
2023-12-30T04:58:31Z,42.805,6.029,13.3036,4.60113,2470.74,2023-12-30T07:01:02Z
2023-12-30T05:01:34Z,42.805,6.029,13.3038,4.60114,2470.74,2023-12-30T07:04:05Z
2023-12-30T05:04:37Z,42.805,6.029,13.3041,4.60119,2470.74,2023-12-30T07:07:08Z
2023-12-30T05:07:40Z,42.805,6.029,13.3034,4.60123,2470.74,2023-12-30T07:10:12Z
2023-12-30T05:10:44Z,42.805,6.029,13.3038,4.60120,2470.74,2023-12-30T07:13:15Z
2023-12-30T05:13:47Z,42.805,6.029,13.3036,4.60122,2470.763,2023-12-30T07:16:18Z
2023-12-30T05:16:50Z,42.805,6.029,13.3034,4.60114,2470.763,2023-12-30T07:19:21Z
2023-12-30T05:19:53Z,42.805,6.029,13.3039,4.60117,2470.8,2023-12-30T07:22:24Z
2023-12-30T05:22:56Z,42.805,6.029,13.3032,4.60115,2470.763,2023-12-30T07:25:27Z
2023-12-30T05:25:59Z,42.805,6.029,13.3035,4.60114,2470.74,2023-12-30T07:28:30Z
2023-12-30T05:29:02Z,42.805,6.029,13.3036,4.60116,2470.787,2023-12-30T07:31:33Z
2023-12-30T05:32:05Z,42.805,6.029,13.3034,4.60120,2470.763,2023-12-30T07:34:36Z
2023-12-30T05:35:08Z,42.805,6.029,13.3036,4.60118,2470.787,2023-12-30T07:37:39Z
2023-12-30T05:38:11Z,42.805,6.029,13.3034,4.60114,2470.787,2023-12-30T07:40:42Z
2023-12-30T05:41:14Z,42.805,6.029,13.3033,4.60117,2470.787,2023-12-30T07:43:45Z
2023-12-30T05:44:17Z,42.805,6.029,13.3034,4.60113,2470.787,2023-12-30T07:46:48Z
2023-12-30T05:47:21Z,42.805,6.029,13.3038,4.60114,2470.763,2023-12-30T07:49:52Z
2023-12-30T05:50:24Z,42.805,6.029,13.3035,4.60117,2470.824,2023-12-30T07:52:55Z
2023-12-30T05:53:27Z,42.805,6.029,13.3036,4.60114,2470.81,2023-12-30T07:55:58Z
2023-12-30T05:56:30Z,42.805,6.029,13.3036,4.60113,2470.824,2023-12-30T07:59:01Z
2023-12-30T05:59:33Z,42.805,6.029,13.3035,4.60118,2470.787,2023-12-30T08:02:04Z
2023-12-30T06:02:36Z,42.805,6.029,13.3035,4.60113,2470.81,2023-12-30T08:05:07Z
2023-12-30T06:05:39Z,42.805,6.029,13.3034,4.60115,2470.81,2023-12-30T08:08:10Z
2023-12-30T06:08:42Z,42.805,6.029,13.3034,4.60120,2470.787,2023-12-30T08:11:13Z
2023-12-30T06:11:45Z,42.805,6.029,13.3036,4.60119,2470.81,2023-12-30T08:14:16Z
2023-12-30T06:14:48Z,42.805,6.029,13.3034,4.60115,2470.824,2023-12-30T08:17:19Z
2023-12-30T06:17:51Z,42.805,6.029,13.3033,4.60124,2470.81,2023-12-30T08:20:22Z
2023-12-30T06:20:54Z,42.805,6.029,13.3033,4.60120,2470.824,2023-12-30T08:23:25Z
2023-12-30T06:23:57Z,42.805,6.029,13.3035,4.60114,2470.833,2023-12-30T08:26:29Z
2023-12-30T06:27:01Z,42.805,6.029,13.3034,4.60116,2470.81,2023-12-30T08:29:32Z
2023-12-30T06:30:04Z,42.805,6.029,13.3033,4.60117,2470.81,2023-12-30T08:32:35Z
2023-12-30T06:33:07Z,42.805,6.029,13.3029,4.60123,2470.833,2023-12-30T08:35:38Z
2023-12-30T06:36:10Z,42.805,6.029,13.3035,4.60113,2470.857,2023-12-30T08:38:41Z
2023-12-30T06:39:13Z,42.805,6.029,13.3034,4.60117,2470.857,2023-12-30T08:41:44Z
2023-12-30T06:42:16Z,42.805,6.029,13.3031,4.60114,2470.857,2023-12-30T08:44:47Z
2023-12-30T06:45:19Z,42.805,6.029,13.3031,4.60113,2470.847,2023-12-30T08:47:50Z
2023-12-30T06:48:22Z,42.805,6.029,13.3035,4.60112,2470.857,2023-12-30T08:50:53Z
2023-12-30T06:51:25Z,42.805,6.029,13.3036,4.60112,2470.871,2023-12-30T08:53:56Z
2023-12-30T06:54:28Z,42.805,6.029,13.3032,4.60122,2470.857,2023-12-30T08:56:59Z
2023-12-30T06:57:31Z,42.805,6.029,13.3030,4.60119,2470.88,2023-12-30T09:00:02Z
2023-12-30T07:00:34Z,42.805,6.029,13.3034,4.60113,2470.894,2023-12-30T09:03:05Z
2023-12-30T07:03:38Z,42.805,6.029,13.3033,4.60117,2470.871,2023-12-30T09:06:09Z
2023-12-30T07:06:41Z,42.805,6.029,13.3037,4.60117,2470.871,2023-12-30T09:09:12Z
2023-12-30T07:09:44Z,42.805,6.029,13.3034,4.60112,2470.88,2023-12-30T09:12:15Z
2023-12-30T07:12:47Z,42.805,6.029,13.3035,4.60115,2470.88,2023-12-30T09:15:18Z
2023-12-30T07:15:50Z,42.805,6.029,13.3033,4.60115,2470.88,2023-12-30T09:18:21Z
2023-12-30T07:18:53Z,42.805,6.029,13.3034,4.60115,2470.843,2023-12-30T09:21:24Z
2023-12-30T07:21:56Z,42.805,6.029,13.3039,4.60115,2470.88,2023-12-30T09:24:27Z
2023-12-30T07:24:59Z,42.805,6.029,13.3036,4.60113,2470.88,2023-12-30T09:27:30Z
2023-12-30T07:28:02Z,42.805,6.029,13.3035,4.60115,2470.917,2023-12-30T09:30:33Z
2023-12-30T07:31:03Z,42.805,6.029,13.3039,4.60114,2470.88,2023-12-30T09:33:34Z
2023-12-30T07:34:07Z,42.805,6.029,13.3041,4.60114,2470.927,2023-12-30T09:36:38Z
2023-12-30T07:37:10Z,42.805,6.029,13.3037,4.60120,2470.94,2023-12-30T09:39:41Z
2023-12-30T07:40:13Z,42.805,6.029,13.3028,4.60123,2470.904,2023-12-30T09:42:44Z
2023-12-30T07:43:16Z,42.805,6.029,13.3037,4.60117,2470.904,2023-12-30T09:45:47Z
2023-12-30T07:46:19Z,42.805,6.029,13.3035,4.60113,2470.917,2023-12-30T09:48:50Z
2023-12-30T07:49:22Z,42.805,6.029,13.3038,4.60112,2470.88,2023-12-30T09:51:53Z
2023-12-30T07:52:25Z,42.805,6.029,13.3039,4.60119,2470.904,2023-12-30T09:54:56Z
2023-12-30T07:55:28Z,42.805,6.029,13.3033,4.60114,2470.894,2023-12-30T09:57:59Z
2023-12-30T07:58:31Z,42.805,6.029,13.3035,4.60111,2470.94,2023-12-30T10:01:02Z
2023-12-30T08:01:34Z,42.805,6.029,13.3032,4.60111,2470.927,2023-12-30T10:04:05Z
2023-12-30T08:04:37Z,42.805,6.029,13.3034,4.60113,2470.917,2023-12-30T10:07:08Z
2023-12-30T08:07:40Z,42.805,6.029,13.3036,4.60113,2470.927,2023-12-30T10:10:11Z
2023-12-30T08:10:43Z,42.805,6.029,13.3034,4.60117,2470.927,2023-12-30T10:13:15Z
2023-12-30T08:13:47Z,42.805,6.029,13.3036,4.60128,2470.913,2023-12-30T10:16:18Z
2023-12-30T08:16:50Z,42.805,6.029,13.3036,4.60119,2470.917,2023-12-30T10:19:21Z
2023-12-30T08:19:53Z,42.805,6.029,13.3032,4.60117,2470.95,2023-12-30T10:22:24Z
2023-12-30T08:22:56Z,42.805,6.029,13.3034,4.60128,2470.917,2023-12-30T10:25:27Z
2023-12-30T08:25:59Z,42.805,6.029,13.3038,4.60115,2470.964,2023-12-30T10:28:30Z
2023-12-30T08:29:02Z,42.805,6.029,13.3031,4.60112,2470.94,2023-12-30T10:31:33Z
2023-12-30T08:32:05Z,42.805,6.029,13.3033,4.60114,2470.927,2023-12-30T10:34:36Z
2023-12-30T08:35:08Z,42.805,6.029,13.3034,4.60112,2470.964,2023-12-30T10:37:39Z
2023-12-30T08:38:11Z,42.805,6.029,13.3034,4.60115,2470.95,2023-12-30T10:40:42Z
2023-12-30T08:41:14Z,42.805,6.029,13.3033,4.60112,2470.964,2023-12-30T10:43:45Z
2023-12-30T08:44:17Z,42.805,6.029,13.3034,4.60111,2470.95,2023-12-30T10:46:48Z
2023-12-30T08:47:21Z,42.805,6.029,13.3031,4.60114,2470.95,2023-12-30T10:49:52Z
2023-12-30T08:50:24Z,42.805,6.029,13.3035,4.60114,2470.964,2023-12-30T10:52:55Z
2023-12-30T08:53:27Z,42.805,6.029,13.3036,4.60113,2470.95,2023-12-30T10:55:58Z
2023-12-30T08:56:30Z,42.805,6.029,13.3035,4.60112,2470.95,2023-12-30T10:59:01Z
2023-12-30T08:59:33Z,42.805,6.029,13.3032,4.60111,2470.95,2023-12-30T11:02:04Z
2023-12-30T09:02:36Z,42.805,6.029,13.3031,4.60111,2470.964,2023-12-30T11:05:07Z
2023-12-30T09:05:39Z,42.805,6.029,13.3036,4.60113,2470.987,2023-12-30T11:08:10Z
2023-12-30T09:08:42Z,42.805,6.029,13.3029,4.60111,2470.95,2023-12-30T11:11:13Z
2023-12-30T09:11:45Z,42.805,6.029,13.3033,4.60113,2470.987,2023-12-30T11:14:16Z
2023-12-30T09:14:48Z,42.805,6.029,13.3036,4.60114,2470.964,2023-12-30T11:17:19Z
2023-12-30T09:17:51Z,42.805,6.029,13.3033,4.60114,2470.964,2023-12-30T11:20:22Z
2023-12-30T09:20:54Z,42.805,6.029,13.3032,4.60111,2470.95,2023-12-30T11:23:25Z
2023-12-30T09:23:58Z,42.805,6.029,13.3032,4.60128,2470.973,2023-12-30T11:26:29Z
2023-12-30T09:27:01Z,42.805,6.029,13.3030,4.60111,2470.964,2023-12-30T11:29:32Z
2023-12-30T09:30:04Z,42.805,6.029,13.3032,4.60110,2470.987,2023-12-30T11:32:35Z
2023-12-30T09:33:07Z,42.805,6.029,13.3036,4.60112,2470.95,2023-12-30T11:35:38Z
2023-12-30T09:36:10Z,42.805,6.029,13.3033,4.60111,2470.987,2023-12-30T11:38:41Z
2023-12-30T09:39:13Z,42.805,6.029,13.3035,4.60117,2470.95,2023-12-30T11:41:44Z
2023-12-30T09:42:16Z,42.805,6.029,13.3034,4.60112,2470.95,2023-12-30T11:44:47Z
2023-12-30T09:45:19Z,42.805,6.029,13.3031,4.60113,2470.964,2023-12-30T11:47:50Z
2023-12-30T09:48:22Z,42.805,6.029,13.3034,4.60114,2470.927,2023-12-30T11:50:53Z
2023-12-30T09:51:25Z,42.805,6.029,13.3034,4.60113,2470.95,2023-12-30T11:53:56Z
2023-12-30T09:54:28Z,42.805,6.029,13.3032,4.60112,2470.973,2023-12-30T11:57:00Z
2023-12-30T09:57:32Z,42.805,6.029,13.3032,4.60115,2470.964,2023-12-30T12:00:03Z
2023-12-30T10:00:35Z,42.805,6.029,13.3029,4.60111,2470.964,2023-12-30T12:03:06Z
2023-12-30T10:03:38Z,42.805,6.029,13.3032,4.60112,2470.973,2023-12-30T12:06:09Z
2023-12-30T10:06:41Z,42.805,6.029,13.3032,4.60111,2470.987,2023-12-30T12:09:12Z
2023-12-30T10:09:44Z,42.805,6.029,13.3034,4.60112,2470.959,2023-12-30T12:12:15Z
2023-12-30T10:12:47Z,42.805,6.029,13.3039,4.60115,2470.95,2023-12-30T12:15:18Z
2023-12-30T10:15:50Z,42.805,6.029,13.3033,4.60114,2470.987,2023-12-30T12:18:21Z
2023-12-30T10:18:53Z,42.805,6.029,13.3035,4.60115,2470.94,2023-12-30T12:21:24Z
2023-12-30T10:21:56Z,42.805,6.029,13.3036,4.60114,2470.927,2023-12-30T12:24:27Z
2023-12-30T10:24:59Z,42.805,6.029,13.3034,4.60116,2470.973,2023-12-30T12:27:30Z
2023-12-30T10:28:02Z,42.805,6.029,13.3034,4.60114,2470.95,2023-12-30T12:30:33Z
2023-12-30T10:31:05Z,42.805,6.029,13.3036,4.60110,2470.927,2023-12-30T12:33:37Z
2023-12-30T10:34:09Z,42.805,6.029,13.3034,4.60113,2470.987,2023-12-30T12:36:40Z
2023-12-30T10:37:12Z,42.805,6.029,13.3035,4.60112,2470.927,2023-12-30T12:39:43Z
2023-12-30T10:40:15Z,42.805,6.029,13.3034,4.60112,2470.95,2023-12-30T12:42:46Z
2023-12-30T10:43:18Z,42.805,6.029,13.3031,4.60111,2470.973,2023-12-30T12:45:49Z
2023-12-30T10:46:21Z,42.805,6.029,13.3029,4.60113,2470.95,2023-12-30T12:48:52Z
2023-12-30T10:49:24Z,42.805,6.029,13.3031,4.60125,2470.927,2023-12-30T12:51:55Z
2023-12-30T10:52:27Z,42.805,6.029,13.3039,4.60117,2470.973,2023-12-30T12:54:58Z
2023-12-30T10:55:30Z,42.805,6.029,13.3036,4.60114,2470.973,2023-12-30T12:58:01Z
2023-12-30T10:58:33Z,42.805,6.029,13.3035,4.60111,2470.973,2023-12-30T13:01:04Z
2023-12-30T11:01:36Z,42.805,6.029,13.3029,4.60113,2470.95,2023-12-30T13:04:07Z
2023-12-30T11:04:39Z,42.805,6.029,13.3034,4.60123,2470.927,2023-12-30T13:07:10Z
2023-12-30T11:07:42Z,42.805,6.029,13.3034,4.60114,2470.927,2023-12-30T13:10:14Z
2023-12-30T11:10:46Z,42.805,6.029,13.3031,4.60117,2470.927,2023-12-30T13:13:17Z
2023-12-30T11:13:49Z,42.805,6.029,13.3032,4.60114,2470.927,2023-12-30T13:16:20Z
2023-12-30T11:16:52Z,42.805,6.029,13.3034,4.60115,2470.973,2023-12-30T13:19:23Z
2023-12-30T11:19:55Z,42.805,6.029,13.3032,4.60114,2470.904,2023-12-30T13:22:26Z
2023-12-30T11:22:58Z,42.805,6.029,13.3041,4.60111,2470.927,2023-12-30T13:25:29Z
2023-12-30T11:26:01Z,42.805,6.029,13.3031,4.60112,2470.94,2023-12-30T13:28:32Z
2023-12-30T11:29:04Z,42.805,6.029,13.3035,4.60111,2470.95,2023-12-30T13:31:35Z
2023-12-30T11:32:06Z,42.805,6.029,13.3033,4.60111,2470.917,2023-12-30T13:34:37Z
2023-12-30T11:35:09Z,42.805,6.029,13.3037,4.60111,2470.904,2023-12-30T13:37:40Z
2023-12-30T11:38:12Z,42.805,6.029,13.3033,4.60110,2470.95,2023-12-30T13:40:43Z
2023-12-30T11:41:15Z,42.805,6.029,13.3031,4.60112,2470.904,2023-12-30T13:43:46Z
2023-12-30T11:44:18Z,42.805,6.029,13.3031,4.60113,2470.927,2023-12-30T13:46:49Z
2023-12-30T11:47:21Z,42.805,6.029,13.3034,4.60115,2470.904,2023-12-30T13:49:52Z
2023-12-30T11:50:24Z,42.805,6.029,13.3036,4.60112,2470.904,2023-12-30T13:52:56Z
2023-12-30T11:53:28Z,42.805,6.029,13.3036,4.60111,2470.904,2023-12-30T13:55:59Z
2023-12-30T11:56:31Z,42.805,6.029,13.3035,4.60111,2470.89,2023-12-30T13:59:02Z
2023-12-30T11:59:34Z,42.805,6.029,13.3036,4.60113,2470.904,2023-12-30T14:02:05Z
2023-12-30T12:02:37Z,42.805,6.029,13.3034,4.60113,2470.904,2023-12-30T14:05:08Z
2023-12-30T12:05:40Z,42.805,6.029,13.3031,4.60112,2470.904,2023-12-30T14:08:11Z
2023-12-30T12:08:43Z,42.805,6.029,13.3036,4.60113,2470.904,2023-12-30T14:11:14Z
2023-12-30T12:11:46Z,42.805,6.029,13.3035,4.60116,2470.904,2023-12-30T14:14:17Z
2023-12-30T12:14:49Z,42.805,6.029,13.3034,4.60112,2470.927,2023-12-30T14:17:20Z
2023-12-30T12:17:52Z,42.805,6.029,13.3034,4.60112,2470.88,2023-12-30T14:20:23Z
2023-12-30T12:20:55Z,42.805,6.029,13.3030,4.60113,2470.917,2023-12-30T14:23:26Z
2023-12-30T12:23:58Z,42.805,6.029,13.3039,4.60113,2470.904,2023-12-30T14:26:30Z
2023-12-30T12:27:02Z,42.805,6.029,13.3036,4.60114,2470.871,2023-12-30T14:29:33Z
2023-12-30T12:30:05Z,42.805,6.029,13.3037,4.60116,2470.88,2023-12-30T14:32:36Z
2023-12-30T12:33:08Z,42.805,6.029,13.3036,4.60112,2470.917,2023-12-30T14:35:39Z
2023-12-30T12:36:11Z,42.805,6.029,13.3033,4.60113,2470.904,2023-12-30T14:38:42Z
2023-12-30T12:39:14Z,42.805,6.029,13.3033,4.60112,2470.857,2023-12-30T14:41:45Z
2023-12-30T12:42:17Z,42.805,6.029,13.3033,4.60112,2470.857,2023-12-30T14:44:48Z
2023-12-30T12:45:20Z,42.805,6.029,13.3034,4.60112,2470.871,2023-12-30T14:47:51Z
2023-12-30T12:48:23Z,42.805,6.029,13.3038,4.60112,2470.871,2023-12-30T14:50:54Z
2023-12-30T12:51:26Z,42.805,6.029,13.3035,4.60110,2470.871,2023-12-30T14:53:57Z
2023-12-30T12:54:29Z,42.805,6.029,13.3034,4.60114,2470.857,2023-12-30T14:57:00Z
2023-12-30T12:57:32Z,42.805,6.029,13.3032,4.60113,2470.88,2023-12-30T15:00:03Z
2023-12-30T13:00:35Z,42.805,6.029,13.3031,4.60119,2470.857,2023-12-30T15:03:07Z
2023-12-30T13:03:39Z,42.805,6.029,13.3033,4.60112,2470.894,2023-12-30T15:06:10Z
2023-12-30T13:06:42Z,42.805,6.029,13.3033,4.60113,2470.857,2023-12-30T15:09:13Z
2023-12-30T13:09:45Z,42.805,6.029,13.3031,4.60112,2470.857,2023-12-30T15:12:16Z
2023-12-30T13:12:48Z,42.805,6.029,13.3033,4.60113,2470.833,2023-12-30T15:15:19Z
2023-12-30T13:15:51Z,42.805,6.029,13.3034,4.60119,2470.81,2023-12-30T15:18:22Z
2023-12-30T13:18:54Z,42.805,6.029,13.3039,4.60114,2470.857,2023-12-30T15:21:25Z
2023-12-30T13:21:57Z,42.805,6.029,13.3034,4.60114,2470.833,2023-12-30T15:24:28Z
2023-12-30T13:25:00Z,42.805,6.029,13.3035,4.60114,2470.857,2023-12-30T15:27:31Z
2023-12-30T13:28:03Z,42.805,6.029,13.3036,4.60114,2470.843,2023-12-30T15:30:34Z
2023-12-30T13:31:06Z,42.805,6.029,13.3034,4.60114,2470.82,2023-12-30T15:33:37Z
2023-12-30T13:34:09Z,42.805,6.029,13.3033,4.60115,2470.88,2023-12-30T15:36:40Z
2023-12-30T13:37:12Z,42.805,6.029,13.3036,4.60117,2470.847,2023-12-30T15:39:44Z
2023-12-30T13:40:16Z,42.805,6.029,13.3031,4.60116,2470.857,2023-12-30T15:42:47Z
2023-12-30T13:43:19Z,42.805,6.029,13.3035,4.60116,2470.847,2023-12-30T15:45:50Z
2023-12-30T13:46:22Z,42.805,6.029,13.3031,4.60114,2470.833,2023-12-30T15:48:53Z
2023-12-30T13:49:25Z,42.805,6.029,13.3036,4.60116,2470.81,2023-12-30T15:51:56Z
2023-12-30T13:52:28Z,42.805,6.029,13.3031,4.60113,2470.81,2023-12-30T15:54:59Z
2023-12-30T13:55:31Z,42.805,6.029,13.3034,4.60120,2470.81,2023-12-30T15:58:02Z
2023-12-30T13:58:34Z,42.805,6.029,13.3036,4.60113,2470.871,2023-12-30T16:01:05Z
2023-12-30T14:01:37Z,42.805,6.029,13.3034,4.60112,2470.833,2023-12-30T16:04:08Z
2023-12-30T14:04:40Z,42.805,6.029,13.3034,4.60114,2470.81,2023-12-30T16:07:11Z
2023-12-30T14:07:43Z,42.805,6.029,13.3032,4.60114,2470.81,2023-12-30T16:10:14Z
2023-12-30T14:10:46Z,42.805,6.029,13.3034,4.60116,2470.833,2023-12-30T16:13:17Z
2023-12-30T14:13:49Z,42.805,6.029,13.3032,4.60114,2470.787,2023-12-30T16:16:21Z
2023-12-30T14:16:53Z,42.805,6.029,13.3032,4.60115,2470.81,2023-12-30T16:19:24Z
2023-12-30T14:19:56Z,42.805,6.029,13.3034,4.60119,2470.81,2023-12-30T16:22:27Z
2023-12-30T14:22:59Z,42.805,6.029,13.3035,4.60117,2470.81,2023-12-30T16:25:30Z
2023-12-30T14:26:02Z,42.805,6.029,13.3034,4.60119,2470.787,2023-12-30T16:28:33Z
2023-12-30T14:29:05Z,42.805,6.029,13.3034,4.60120,2470.8,2023-12-30T16:31:36Z
2023-12-30T14:32:08Z,42.805,6.029,13.3036,4.60122,2470.787,2023-12-30T16:34:39Z
2023-12-30T14:35:11Z,42.805,6.029,13.3035,4.60117,2470.777,2023-12-30T16:37:42Z
2023-12-30T14:38:14Z,42.805,6.029,13.3035,4.60116,2470.787,2023-12-30T16:40:45Z
2023-12-30T14:41:17Z,42.805,6.029,13.3035,4.60113,2470.787,2023-12-30T16:43:48Z
2023-12-30T14:44:20Z,42.805,6.029,13.3036,4.60114,2470.824,2023-12-30T16:46:51Z
2023-12-30T14:47:23Z,42.805,6.029,13.3034,4.60114,2470.8,2023-12-30T16:49:55Z
2023-12-30T14:50:27Z,42.805,6.029,13.3031,4.60117,2470.824,2023-12-30T16:52:58Z
2023-12-30T14:53:30Z,42.805,6.029,13.3035,4.60117,2470.777,2023-12-30T16:56:01Z
2023-12-30T14:56:33Z,42.805,6.029,13.3032,4.60116,2470.763,2023-12-30T16:59:04Z
2023-12-30T14:59:36Z,42.805,6.029,13.3034,4.60125,2470.81,2023-12-30T17:02:07Z
2023-12-30T15:02:39Z,42.805,6.029,13.3035,4.60117,2470.824,2023-12-30T17:05:10Z